This is the latest recevied weather packets stored in our database for station/object KQ4UPF. If no packets are shown the sender has not sent any weather packets the latest 10 day(s).
| Time | Temp. | Humidity | Pressure | Rain* | Wind** | Luminosity | Snow |
|---|---|---|---|---|---|---|---|
| 1777263062 | 15° C | 95% | 1015.7 hPa | 0 mm | - | 0 W/m² | - |
| 1777262759 | 15° C | 94% | 1015.5 hPa | 0 mm | - | 0 W/m² | - |
| 1777262455 | 15° C | 93% | 1015.4 hPa | 0 mm | - | 0 W/m² | - |
| 1777262152 | 15° C | 93% | 1015.4 hPa | 0 mm | - | 0 W/m² | - |
| 1777261849 | 15.56° C | 92% | 1015.5 hPa | 0 mm | - | 0 W/m² | - |
| 1777261545 | 15.56° C | 92% | 1015.4 hPa | 0 mm | - | 0 W/m² | - |
| 1777261243 | 15.56° C | 93% | 1015.3 hPa | 0 mm | - | 0 W/m² | - |
| 1777260942 | 15.56° C | 93% | 1015.4 hPa | 0 mm | - | 0 W/m² | - |
| 1777260638 | 15.56° C | 92% | 1015.3 hPa | 0 mm | - | 0 W/m² | - |
| 1777260333 | 16.11° C | 91% | 1015.1 hPa | 0 mm | - | 0 W/m² | - |
| 1777260030 | 16.11° C | 91% | 1015.1 hPa | 0 mm | - | 0 W/m² | - |
| 1777259726 | 15.56° C | 91% | 1015.1 hPa | 0 mm | - | 0 W/m² | - |
| 1777259424 | 16.11° C | 90% | 1014.9 hPa | 0 mm | - | 0 W/m² | - |
| 1777259121 | 16.11° C | 91% | 1015 hPa | 0 mm | - | 0 W/m² | - |
| 1777258818 | 16.11° C | 89% | 1014.9 hPa | 0 mm | - | 0 W/m² | - |
| 1777258514 | 16.67° C | 87% | 1014.9 hPa | 0 mm | - | 0 W/m² | - |
| 1777258211 | 16.67° C | 87% | 1014.9 hPa | 0 mm | - | 0 W/m² | - |
| 1777257908 | 16.67° C | 87% | 1015.2 hPa | 0 mm | - | 0 W/m² | - |
| 1777257606 | 17.22° C | 86% | 1015 hPa | 0 mm | - | 0 W/m² | - |
| 1777257303 | 16.67° C | 87% | 1014.9 hPa | 0 mm | - | 0 W/m² | - |
| 1777257000 | 16.67° C | 87% | 1015.2 hPa | 0 mm | - | 0 W/m² | - |
| 1777256696 | 16.67° C | 87% | 1014.8 hPa | 0 mm | - | 0 W/m² | - |
| 1777256392 | 16.67° C | 88% | 1014.9 hPa | 0 mm | - | 0 W/m² | - |
| 1777256088 | 16.67° C | 87% | 1014.9 hPa | 0 mm | - | 0 W/m² | - |
| 1777255784 | 17.22° C | 86% | 1014.8 hPa | 0 mm | - | 0 W/m² | - |
* Rain latest hour (hover to see other rain measurements)
** Current wind speed in m/s (hover to see current wind gust speed)